Time,TemperatureF,DewpointF,PressureIn,WindDirection,WindDirectionDegrees,WindSpeedMPH,WindSpeedGustMPH,Humidity,HourlyPrecipIn,Conditions,Clouds,dailyrainin,SoftwareType,DateUTC
2013-03-09 00:21:00,54.0,50.0,30.02,ENE,60,3.0,-999.0,85,0.01,,,-99.99,,2013-03-09 08:21:00,
2013-03-09 00:31:00,54.0,50.0,30.02,ENE,60,3.0,-999.0,85,0.01,,,-99.99,,2013-03-09 08:31:00,
2013-03-09 00:41:00,54.0,50.0,30.02,ENE,60,3.0,-999.0,85,0.01,,,-99.99,,2013-03-09 08:41:00,
2013-03-09 01:21:00,54.0,49.0,30.03,ENE,60,7.0,-999.0,83,0.00,,,-99.99,,2013-03-09 09:21:00,
2013-03-09 01:31:00,54.0,49.0,30.03,ENE,60,7.0,-999.0,83,0.00,,,-99.99,,2013-03-09 09:31:00,
2013-03-09 01:41:00,54.0,49.0,30.03,ENE,60,7.0,-999.0,83,0.00,,,-99.99,,2013-03-09 09:41:00,
2013-03-09 02:21:00,54.0,49.0,30.04,ENE,70,6.0,-999.0,83,0.00,,,-99.99,,2013-03-09 10:21:00,
2013-03-09 02:31:00,54.0,49.0,30.04,ENE,70,6.0,-999.0,83,0.00,,,-99.99,,2013-03-09 10:31:00,
2013-03-09 02:41:00,54.0,49.0,30.04,ENE,70,6.0,-999.0,83,0.00,,,-99.99,,2013-03-09 10:41:00,
2013-03-09 03:21:00,54.0,49.0,30.03,East,90,8.0,-999.0,82,0.00,,,-99.99,,2013-03-09 11:21:00,
2013-03-09 03:32:00,54.0,49.0,30.03,East,90,8.0,-999.0,82,0.00,,,-99.99,,2013-03-09 11:32:00,
2013-03-09 03:41:00,54.0,49.0,30.03,East,90,8.0,-999.0,82,0.00,,,-99.99,,2013-03-09 11:41:00,
2013-03-09 04:21:00,54.0,48.0,30.03,NE,50,3.0,-999.0,81,0.00,,,-99.99,,2013-03-09 12:21:00,
2013-03-09 04:32:00,54.0,48.0,30.03,NE,50,3.0,-999.0,81,0.00,,,-99.99,,2013-03-09 12:32:00,
2013-03-09 04:42:00,54.0,48.0,30.03,NE,50,3.0,-999.0,81,0.00,,,-99.99,,2013-03-09 12:42:00,
2013-03-09 05:21:00,54.0,48.0,30.05,North,350,10.0,-999.0,81,0.00,,,-99.99,,2013-03-09 13:21:00,
2013-03-09 05:31:00,54.0,48.0,30.05,North,350,10.0,-999.0,81,0.00,,,-99.99,,2013-03-09 13:31:00,
2013-03-09 05:42:00,54.0,48.0,30.05,North,350,10.0,-999.0,81,0.00,,,-99.99,,2013-03-09 13:42:00,
2013-03-09 06:21:00,53.0,47.0,30.07,North,0,0.0,-999.0,80,0.00,,,-99.99,,2013-03-09 14:21:00,
2013-03-09 06:31:00,53.0,47.0,30.07,North,0,0.0,-999.0,80,0.00,,,-99.99,,2013-03-09 14:31:00,
2013-03-09 06:41:00,53.0,47.0,30.07,North,0,0.0,-999.0,80,0.00,,,-99.99,,2013-03-09 14:41:00,
2013-03-09 07:22:00,53.0,47.0,30.07,North,0,0.0,-999.0,80,0.00,,,-99.99,,2013-03-09 15:22:00,
2013-03-09 07:31:00,53.0,47.0,30.07,North,0,0.0,-999.0,80,0.00,,,-99.99,,2013-03-09 15:31:00,
2013-03-09 07:42:00,53.0,47.0,30.07,North,0,0.0,-999.0,80,0.00,,,-99.99,,2013-03-09 15:42:00,
2013-03-09 08:21:00,54.0,48.0,30.10,North,0,0.0,-999.0,81,0.00,,,-99.99,,2013-03-09 16:21:00,
2013-03-09 08:31:00,54.0,48.0,30.10,North,0,0.0,-999.0,81,0.00,,,-99.99,,2013-03-09 16:31:00,
2013-03-09 08:41:00,54.0,48.0,30.10,North,0,0.0,-999.0,81,0.00,,,-99.99,,2013-03-09 16:41:00,
2013-03-09 09:22:00,56.0,50.0,30.11,SSW,210,2.0,-999.0,79,0.00,,,-99.99,,2013-03-09 17:22:00,
2013-03-09 09:32:00,56.0,50.0,30.11,SSW,210,2.0,-999.0,79,0.00,,,-99.99,,2013-03-09 17:32:00,
2013-03-09 09:42:00,56.0,50.0,30.11,SSW,210,2.0,-999.0,79,0.00,,,-99.99,,2013-03-09 17:42:00,
2013-03-09 10:21:00,57.0,51.0,30.13,SSW,200,3.0,-999.0,79,0.00,,,-99.99,,2013-03-09 18:21:00,
2013-03-09 10:31:00,57.0,51.0,30.13,SSW,200,3.0,-999.0,79,0.00,,,-99.99,,2013-03-09 18:31:00,
2013-03-09 10:42:00,57.0,51.0,30.13,SSW,200,3.0,-999.0,79,0.00,,,-99.99,,2013-03-09 18:42:00,
2013-03-09 11:22:00,58.0,52.0,30.14,South,190,3.0,-999.0,79,0.00,,,-99.99,,2013-03-09 19:22:00,
2013-03-09 11:32:00,58.0,52.0,30.14,South,190,3.0,-999.0,79,0.00,,,-99.99,,2013-03-09 19:32:00,
2013-03-09 11:42:00,58.0,52.0,30.14,South,190,3.0,-999.0,79,0.00,,,-99.99,,2013-03-09 19:42:00,
2013-03-09 12:21:00,59.0,52.0,30.14,SE,140,3.0,-999.0,77,0.00,,,-99.99,,2013-03-09 20:21:00,
2013-03-09 12:32:00,59.0,52.0,30.14,SE,140,3.0,-999.0,77,0.00,,,-99.99,,2013-03-09 20:32:00,
2013-03-09 12:42:00,59.0,52.0,30.14,SE,140,3.0,-999.0,77,0.00,,,-99.99,,2013-03-09 20:42:00,
2013-03-09 13:21:00,60.0,51.0,30.13,South,180,2.0,-999.0,72,0.00,,,-99.99,,2013-03-09 21:21:00,
2013-03-09 13:32:00,60.0,51.0,30.13,South,180,2.0,-999.0,72,0.00,,,-99.99,,2013-03-09 21:32:00,
2013-03-09 13:42:00,60.0,51.0,30.13,South,180,2.0,-999.0,72,0.00,,,-99.99,,2013-03-09 21:42:00,
2013-03-09 14:21:00,60.0,52.0,30.12,North,0,0.0,-999.0,75,0.00,,,-99.99,,2013-03-09 22:21:00,
2013-03-09 14:32:00,60.0,52.0,30.12,North,0,0.0,-999.0,75,0.00,,,-99.99,,2013-03-09 22:32:00,
2013-03-09 14:41:00,60.0,52.0,30.12,North,0,0.0,-999.0,75,0.00,,,-99.99,,2013-03-09 22:41:00,
2013-03-09 15:21:00,60.0,51.0,30.13,South,190,1.0,-999.0,73,0.00,,,-99.99,,2013-03-09 23:21:00,
2013-03-09 15:32:00,60.0,51.0,30.13,South,190,1.0,-999.0,73,0.00,,,-99.99,,2013-03-09 23:32:00,
2013-03-09 15:41:00,60.0,51.0,30.13,South,190,1.0,-999.0,73,0.00,,,-99.99,,2013-03-09 23:41:00,
2013-03-09 16:22:00,60.0,52.0,30.12,North,0,0.0,-999.0,74,0.00,,,-99.99,,2013-03-10 00:22:00,
2013-03-09 16:32:00,60.0,52.0,30.12,North,0,0.0,-999.0,74,0.00,,,-99.99,,2013-03-10 00:32:00,
2013-03-09 16:42:00,60.0,52.0,30.12,North,0,0.0,-999.0,74,0.00,,,-99.99,,2013-03-10 00:42:00,
2013-03-09 17:21:00,58.0,50.0,30.12,SE,140,4.0,-999.0,74,0.00,,,-99.99,,2013-03-10 01:21:00,
2013-03-09 17:31:00,58.0,50.0,30.12,SE,140,4.0,-999.0,74,0.00,,,-99.99,,2013-03-10 01:31:00,
2013-03-09 17:41:00,58.0,50.0,30.12,SE,140,4.0,-999.0,74,0.00,,,-99.99,,2013-03-10 01:41:00,
2013-03-09 18:22:00,57.0,49.0,30.14,NW,310,1.0,-999.0,75,0.00,,,-99.99,,2013-03-10 02:22:00,
2013-03-09 18:31:00,57.0,49.0,30.14,NW,310,1.0,-999.0,75,0.00,,,-99.99,,2013-03-10 02:31:00,
2013-03-09 18:41:00,57.0,49.0,30.14,NW,310,1.0,-999.0,75,0.00,,,-99.99,,2013-03-10 02:41:00,
2013-03-09 19:22:00,56.0,47.0,30.15,NW,310,1.0,-999.0,72,0.00,,,-99.99,,2013-03-10 03:22:00,
2013-03-09 19:31:00,56.0,47.0,30.15,NW,310,1.0,-999.0,72,0.00,,,-99.99,,2013-03-10 03:31:00,
2013-03-09 19:42:00,56.0,47.0,30.15,NW,310,1.0,-999.0,72,0.00,,,-99.99,,2013-03-10 03:42:00,
2013-03-09 20:21:00,55.0,45.0,30.16,North,0,0.0,-999.0,70,0.00,,,-99.99,,2013-03-10 04:21:00,
2013-03-09 20:31:00,55.0,45.0,30.16,North,0,0.0,-999.0,70,0.00,,,-99.99,,2013-03-10 04:31:00,
2013-03-09 20:41:00,55.0,45.0,30.16,North,0,0.0,-999.0,70,0.00,,,-99.99,,2013-03-10 04:41:00,
2013-03-09 21:22:00,55.0,48.0,30.18,North,10,5.0,-999.0,77,0.00,,,-99.99,,2013-03-10 05:22:00,
2013-03-09 21:31:00,55.0,48.0,30.18,North,10,5.0,-999.0,77,0.00,,,-99.99,,2013-03-10 05:31:00,
2013-03-09 21:42:00,55.0,48.0,30.18,North,10,5.0,-999.0,77,0.00,,,-99.99,,2013-03-10 05:42:00,
2013-03-09 22:21:00,53.0,47.0,30.19,North,360,6.0,-999.0,80,0.00,,,-99.99,,2013-03-10 06:21:00,
2013-03-09 22:32:00,53.0,47.0,30.19,North,360,6.0,-999.0,80,0.00,,,-99.99,,2013-03-10 06:32:00,
2013-03-09 22:41:00,53.0,47.0,30.19,North,360,6.0,-999.0,80,0.00,,,-99.99,,2013-03-10 06:41:00,
2013-03-09 23:21:00,53.0,47.0,30.20,NNW,340,2.0,-999.0,81,0.00,,,-99.99,,2013-03-10 07:21:00,
2013-03-09 23:31:00,53.0,47.0,30.20,NNW,340,2.0,-999.0,81,0.00,,,-99.99,,2013-03-10 07:31:00,
2013-03-09 23:42:00,53.0,47.0,30.20,NNW,340,2.0,-999.0,81,0.00,,,-99.99,,2013-03-10 07:42:00,